This is the latest recevied weather packets stored in our database for station/object VE6CWS-7. If no packets are shown the sender has not sent any weather packets the latest 10 day(s).
| Time | Temp. | Humidity | Pressure | Rain* | Wind** | Luminosity | Snow |
|---|---|---|---|---|---|---|---|
| 1777527944 | 5.56° C | 54% | 1023 hPa | 0 mm | - | - | - |
| 1777527045 | 6.11° C | 53% | 1023.1 hPa | 0 mm | - | - | - |
| 1777526143 | 5.56° C | 53% | 1023.2 hPa | 0 mm | - | - | - |
| 1777525302 | 6.11° C | 53% | 1023.2 hPa | 0 mm | - | - | - |
| 1777524340 | 8.33° C | 47% | 1023.1 hPa | 0 mm | - | - | - |
| 1777523439 | 8.89° C | 43% | 1023.1 hPa | 0 mm | - | - | - |
| 1777522538 | 8.89° C | 45% | 1023.2 hPa | 0 mm | - | - | - |
| 1777521698 | 8.89° C | 45% | 1023.1 hPa | 0 mm | - | - | - |
| 1777520733 | 9.44° C | 43% | 1023.1 hPa | 0 mm | - | - | - |
| 1777519831 | 9.44° C | 44% | 1023 hPa | 0 mm | - | - | - |
| 1777518931 | 10° C | 42% | 1022.8 hPa | 0 mm | - | - | - |
| 1777518091 | 10.56° C | 40% | 1022.7 hPa | 0 mm | - | - | - |
| 1777517149 | 11.11° C | 40% | 1022.5 hPa | 0 mm | - | - | - |
| 1777516256 | 11.67° C | 38% | 1022.4 hPa | 0 mm | - | - | - |
| 1777515348 | 12.22° C | 36% | 1022.3 hPa | 0 mm | - | - | - |
| 1777514508 | 12.78° C | 35% | 1022.2 hPa | 0 mm | - | - | - |
| 1777513542 | 13.89° C | 32% | 1022 hPa | 0 mm | - | - | - |
| 1777512643 | 13.89° C | 31% | 1021.9 hPa | 0 mm | - | - | - |
| 1777511802 | 14.44° C | 30% | 1022 hPa | 0 mm | - | - | - |
| 1777510901 | 14.44° C | 29% | 1022 hPa | 0 mm | - | - | - |
| 1777509939 | 14.44° C | 30% | 1022 hPa | 0 mm | - | - | - |
| 1777509042 | 15° C | 30% | 1021.9 hPa | 0 mm | - | - | - |
| 1777508137 | 15° C | 30% | 1022 hPa | 0 mm | - | - | - |
| 1777507295 | 15° C | 31% | 1021.9 hPa | 0 mm | - | - | - |
| 1777506335 | 15° C | 29% | 1022 hPa | 0 mm | - | - | - |
* Rain latest hour (hover to see other rain measurements)
** Current wind speed in m/s (hover to see current wind gust speed)